SCP
0 0 0 0 0 0 0 0 0 0 0 0 0 0 0 0 0 0 0 0 0 0 0 0 0 0 0 0 0 0 0 0 0 0 0 0 0 0 0 0 0 0 0
0 0 0 0 0 0 0 0 0 0 0 0 0 0 0 0 0 0 0 0 0 0 0 0 0 0 0 0 0 0 0 0 0 0 0 0 0 0 0 0 0 0 0
0 0 0 0 0 0 0 0 0 0 0 0 0 0 0 0 0 0 0 0 0 0 0 0 0 0 0 0 0 0 0 0 0 0 0 0 0 0 0 0 0 0 0
0 0 0 0 0 0 0 0 0 0 0 0 0 0 0 0 0 0 0 0 0 0 0 0 0 0 0 0 0 0 0 0 0 0 0 0 0 0 0 0 0 0 0
0 0 0 0 0 0 0 0 0 0 0 0 0 0 0 0 0 0 0 0 0 0 0 0 0 0 0 0 0 0 0 0 0 0 0 0 0 0 0 0 0 0 0
0 0 0 0 0 0 0 0 0 0 0 0 0 0 0 0 0 0 0 0 0 0 0 0 0 0 0 0 0 0 0 0 0 0 0 0 0 0 0 0 0 0 0
0 0 0 0 0 0 0 0 0 0 0 0 0 0 0 0 0 0 0 0 0 0 0 0 0 0 0 0 0 0 0 0 0 0 0 0 0 0 0 0 0 0 0
0 0 0 0 0 0 0 0 0 0 0 0 0 0 0 0 0 0 0 0 0 0 0 0 0 0 0 0 0 0 0 0 0 0 0 0 0 0 0 0 0 0 0
0 0 0 0 0 0 0 0 0 0 0 0 0 0 0 0 0 0 0 0 0 0 0 0 0 0 0 0 0 0 0 0 0 0 0 0 0 0 0 0 0 0 0
0 0 0 0 0 0 0 0 0 0 0 0 0 0 0 0 0 0 0 0 0 0 0 0 0 0 0 0 0 0 0 0 0 0 0 0 0 0 0 0 0 0 0
0 0 0 0 0 0 0 0 0 0 0 0 0 0 0 0 0 0 0 0 0 0 0 0 0 0 0 0 0 0 0 0 0 0 0 0 0 0 0 0 0 0 0
0 0 0 0 0 0 0 0 0 0 0 0 0 0 0 0 0 0 0 0 0 0 0 0 0 0 0 0 0 0 0 0 0 0 0 0 0 0 0 0 0 0 0
0 0 0 0 0 0 0 0 0 0 0 0 0 0 0 0 0 0 0 0 0 0 0 0 -0 -0 0 0 0 0 0 0 0 0 0 0 0 0 0 0 0 0 0
0 0 0 0 0 0 0 0 0 0 0 0 0 0 0 0 0 0 0 0 0 0 0 0 0 -0 0 0 0 0 0 0 0 0 0 0 0 0 0 0 0 0 0
0 0 0 0 0 0 0 0 0 0 0 0 0 0 0 0 0 0 0 0 0 0 0 0 0 0 0 0 0 0 0 0 0 0 0 0 0 0 0 0 0 0 0
0 0 0 0 0 0 0 0 0 0 -0 -0 -0 0 0 0 0 0 0 0 0 0 0 0 0 0 0 0 0 0 0 0 0 0 0 0 0 0 0 0 0 0 0
0 0 0 0 0 0 0 0 0 0 0 0 0 0 0 0 0 0 0 0 0 0 0 0 0 0 0 0 0 0 0 0 0 0 0 0 0 0 0 0 0 0 0
0 0 0 0 0 0 0 0 0 0 0 0 0 0 0 0 0 0 0 0 0 0 0 0 0 0 0 0 0 0 0 0 0 0 0 0 0 0 0 0 0 0 0
0 0 0 0 0 0 0 0 0 0 0 0 0 0 0 0 0 0 0 0 0 0 0 0 0 0 0 0 0 0 0 0 0 0 0 0 0 0 0 0 0 0 0
0 0 0 0 0 0 0 0 0 0 0 0 0 0 0 0 0 0 0 0 0 0 0 0 0 0 0 0 0 0 0 0 0 0 0 0 0 0 0 0 0 0 0
0 0 0 0 0 0 0 0 0 0 0 0 0 0 -0 -0 -0 0 0 0 0 0 0 0 0 0 0 0 0 0 0 0 0 0 0 0 0 0 0 0 0 0 0
0 0 0 0 0 0 0 0 0 0 0 0 0 0 -0 -0 -0 -0 -0 -0 0 -0 0 0 0 0 0 0 0 0 0 0 0 0 0 0 0 0 0 0 0 0 0
0 0 0 0 0 0 0 0 0 0 0 0 0 -0 -0 -0 -0 -0 -0 -0 -0 -0 -0 0 0 0 0 0 0 0 0 0 0 0 0 0 0 0 0 0 0 0 0
0 0 0 0 0 0 0 0 0 0 0 -0 -0 -0 -0 -0 -0 -0 -0 -0 -0 -0 0 0 0 0 0 0 0 0 0 0 0 0 0 0 0 0 0 0 0 0 0
0 0 0 0 0 0 0 0 0 0 -0 -0 -0 -0 -0 -0 -0 -0 -0 -0 -0 0 0 0 0 0 0 0 0 0 0 0 0 0 0 0 0 0 0 0 0 0 0
0 0 0 0 0 0 0 0 -0 -0 -0 -0 -0 -0 -0 -0 -0 -0 -0 0 0 0 0 0 0 0 0 0 0 0 0 0 0 0 0 0 0 0 0 0 0 0 0
Wind_Speed_500mb
53 48 46 43 40 37 34 32 31 31 31 32 34 35 35 36 38 39 40 40 42 41 41 45 44 46 51 52 55 57 58 59 74 71 60 59 63 62 61 64 68 69 66
58 55 52 48 44 40 37 34 32 32 32 33 34 36 36 36 36 38 39 41 44 45 45 47 47 47 50 51 54 57 58 62 66 77 69 71 69 63 66 65 67 64 63
68 63 58 52 47 43 39 36 35 34 34 36 38 38 38 38 39 42 47 49 52 53 52 52 51 53 55 54 56 57 59 61 64 70 75 72 70 66 68 65 67 61 59
71 66 61 54 48 42 39 39 38 39 39 40 40 40 42 44 45 47 50 54 56 57 58 56 55 57 59 58 60 60 61 64 65 67 72 70 63 66 56 60 68 59 59
69 66 63 52 46 41 44 51 46 43 42 42 43 44 45 44 41 43 47 51 55 56 55 54 55 57 57 59 63 63 62 62 63 67 67 62 57 56 47 53 64 68 67
65 68 62 53 51 51 48 46 46 45 45 46 45 44 44 43 43 45 49 54 56 59 60 57 56 59 59 60 63 66 62 56 61 62 63 60 62 57 58 58 66 71 68
65 69 64 57 54 55 48 49 49 47 47 46 45 45 47 47 47 50 51 56 59 61 62 62 61 61 61 62 63 66 65 63 60 64 69 69 69 62 62 64 66 72 75
70 68 67 67 59 56 54 54 51 48 48 47 46 48 53 53 49 51 54 60 64 66 65 63 64 62 59 63 64 65 64 61 61 59 62 64 64 64 64 69 73 76 77
58 58 55 56 57 61 56 50 46 44 44 47 50 52 54 56 52 54 57 63 68 69 66 65 65 66 57 58 60 57 60 60 55 53 53 53 53 53 53 57 61 58 59
70 71 58 63 63 55 48 42 42 43 45 48 52 54 56 59 54 55 56 60 65 67 68 67 62 62 61 56 54 50 58 60 56 55 60 55 49 50 54 53 56 62 55
75 85 61 65 56 49 45 43 41 41 44 49 54 57 58 58 59 56 56 61 65 66 67 65 65 62 56 54 52 54 59 59 59 56 58 58 59 49 54 47 47 52 57
75 70 60 57 55 49 46 43 39 42 47 52 59 63 62 63 63 59 56 57 60 59 58 59 68 66 63 54 49 56 58 52 56 58 57 56 54 60 50 44 42 47 53
66 63 44 50 54 51 48 46 45 45 45 53 58 64 66 63 63 63 61 58 58 61 65 66 52 53 58 58 57 57 59 58 57 63 61 63 62 52 46 45 46 48 50
56 52 48 47 53 53 50 51 51 47 50 55 59 63 64 65 65 66 66 65 62 61 58 54 60 59 59 60 63 62 60 56 54 55 57 59 63 50 48 49 50 44 45
52 52 53 49 54 55 53 53 52 51 54 59 63 60 61 68 66 55 53 62 66 66 62 61 65 61 62 65 61 58 51 51 57 50 54 58 55 51 52 48 45 40 39
61 55 55 58 49 51 53 56 55 59 60 63 65 58 61 63 65 58 55 59 63 61 66 74 73 71 69 69 63 60 52 49 48 47 49 54 54 50 46 43 41 38 33
57 57 55 52 49 49 53 57 65 66 66 67 67 61 57 63 58 55 55 57 57 55 64 72 71 70 69 65 63 60 57 44 44 46 43 53 56 50 43 40 38 34 29
58 55 51 51 54 56 57 58 62 66 71 73 66 63 62 60 58 53 52 57 64 63 70 76 76 75 74 69 64 57 49 41 43 43 44 44 48 45 42 39 36 29 26
58 57 56 56 55 56 58 59 61 63 67 70 68 66 66 66 64 56 47 55 66 72 72 75 73 71 67 58 50 44 42 42 41 40 42 42 38 40 40 36 32 27 24
62 57 53 55 55 54 54 56 59 61 63 65 67 69 70 71 68 63 64 60 62 67 65 64 62 58 53 44 40 39 44 41 41 42 43 40 38 39 37 35 30 26 24
69 64 58 57 58 58 58 57 57 59 63 66 69 68 67 58 61 59 58 62 66 71 70 67 63 54 49 37 39 43 39 39 41 42 42 38 36 37 36 33 30 27 24
65 63 61 60 58 56 55 55 57 59 63 67 71 72 69 68 67 65 62 61 63 62 60 58 55 52 48 48 42 39 42 45 45 42 42 38 37 36 34 33 30 28 23
64 63 62 59 56 56 55 56 59 61 65 67 70 72 71 69 65 61 61 57 55 54 49 47 46 40 37 38 34 38 44 44 42 39 39 37 38 37 35 33 31 29 26
61 57 57 57 57 57 58 60 62 65 67 68 69 69 68 66 62 58 55 51 49 46 41 37 34 32 32 34 34 36 39 40 39 38 36 35 36 36 37 33 33 28 27
61 58 56 56 58 60 62 63 65 66 67 67 70 70 68 64 60 56 48 43 41 38 29 26 26 27 29 30 31 33 36 37 38 36 36 36 34 36 37 37 33 32 27
57 55 55 56 59 60 62 65 66 65 66 68 69 68 64 60 55 49 44 39 34 27 23 22 23 24 26 30 30 33 35 37 36 37 37 36 37 41 42 39 35 32 28
Wind_Direction_500mb
264 259 256 253 250 250 254 262 270 277 283 288 293 296 297 296 294 294 294 293 293 293 293 291 291 288 285 284 283 282 278 276 277 285 286 291 295 302 301 300 300 303 306
261 258 255 252 251 255 260 266 273 279 286 291 294 294 293 292 293 294 294 295 296 296 295 294 295 292 291 290 287 282 279 281 280 284 290 294 296 299 298 298 297 301 303
260 257 254 253 255 259 265 271 277 281 286 290 292 293 294 295 295 296 296 296 295 295 294 294 295 294 292 290 288 284 283 282 282 283 287 293 294 297 297 298 298 303 302
258 256 254 253 256 260 266 273 279 282 282 285 287 288 289 291 293 294 294 294 293 293 293 293 293 291 291 290 285 283 283 283 284 283 286 288 289 295 296 295 301 305 305
258 256 253 253 257 263 277 278 273 275 280 285 287 289 292 293 297 298 299 298 297 297 297 297 295 291 288 285 285 285 284 282 282 283 280 282 283 289 288 292 295 304 306
261 258 252 249 255 261 266 270 272 275 281 285 289 290 292 294 299 300 300 299 299 300 300 299 296 294 292 288 286 286 282 274 276 276 275 275 280 285 290 290 296 302 303
271 261 252 252 263 267 268 271 271 275 279 282 285 288 292 294 298 299 298 297 298 299 300 301 299 296 294 290 286 284 283 277 266 268 269 270 276 281 285 289 290 292 291
280 268 262 263 267 268 268 267 271 273 275 279 283 287 289 292 295 296 297 296 296 297 297 297 297 297 296 290 288 285 284 282 281 276 272 276 276 278 278 279 281 283 287
277 273 270 270 268 269 263 266 268 270 277 284 287 289 291 294 297 296 297 296 296 296 296 295 296 296 295 287 286 284 287 288 286 282 284 284 280 278 278 279 279 284 284
277 276 286 278 260 260 262 263 270 277 281 287 291 293 295 296 299 298 298 296 295 295 294 295 298 296 293 288 287 282 285 289 292 290 289 287 285 278 285 273 265 267 278
296 274 279 276 259 258 262 267 273 280 291 294 295 296 296 299 301 299 297 294 292 291 291 294 297 297 291 284 280 274 277 285 286 282 282 287 288 282 290 275 267 268 272
307 301 274 274 259 258 264 267 274 286 292 302 303 300 299 301 301 301 300 294 292 289 285 288 293 292 287 285 280 273 276 280 278 280 279 278 272 288 287 280 277 276 276
307 302 296 273 262 261 263 268 277 284 296 304 303 301 302 303 303 303 301 296 291 290 292 293 289 287 286 283 278 273 268 271 270 269 272 273 276 288 283 281 282 284 282
305 294 287 276 266 262 262 266 274 285 296 303 305 303 303 303 305 306 306 304 302 299 298 296 301 299 289 282 281 278 276 263 263 268 268 270 277 278 279 278 285 288 287
307 299 295 283 275 269 266 271 279 288 295 302 304 301 300 302 304 300 297 299 301 303 306 297 297 291 289 287 285 283 277 278 259 266 266 269 273 274 271 276 284 284 282
316 309 297 289 287 278 274 280 286 290 295 299 302 297 296 294 296 290 287 282 281 283 282 280 279 278 278 279 280 281 279 279 257 263 265 265 267 270 271 275 279 278 269
317 313 307 300 292 286 284 287 289 290 294 296 297 296 297 296 295 289 288 284 283 280 272 273 275 276 277 278 277 275 277 268 258 261 273 261 261 264 268 271 272 269 257
315 312 307 300 296 292 292 291 290 292 296 296 297 300 301 302 298 290 285 283 280 275 272 274 275 276 276 274 271 273 270 263 257 268 267 270 257 254 258 263 261 251 245
319 314 308 303 298 295 292 292 293 294 294 296 300 302 304 304 302 294 285 277 276 277 278 279 279 278 278 276 271 261 256 260 263 267 267 270 261 250 250 254 247 237 235
319 315 309 302 300 298 296 295 293 293 296 300 301 304 306 306 304 304 303 297 291 288 286 283 282 277 271 271 260 250 265 262 262 259 259 263 260 242 244 243 233 232 224
315 312 308 304 304 303 300 298 298 298 300 301 302 305 305 297 291 286 283 283 284 286 287 286 283 273 263 250 259 254 260 260 258 255 253 255 247 239 238 231 222 221 214
311 308 306 305 305 303 301 300 300 301 302 303 305 306 305 299 297 296 293 289 287 286 283 280 274 266 254 241 244 255 258 255 249 248 244 247 237 234 229 216 215 208 208
308 306 305 304 304 304 303 304 304 304 305 307 307 306 305 304 303 300 297 295 291 288 283 276 268 255 236 237 241 250 253 248 242 241 241 240 230 228 215 208 206 198 199
309 306 304 305 306 306 306 307 308 309 309 309 307 307 306 305 303 300 296 294 289 286 280 268 254 242 234 237 241 245 241 234 232 229 231 225 224 219 204 200 191 191 193
308 306 305 306 306 308 308 309 310 311 310 310 310 309 308 306 303 301 297 291 289 284 270 252 241 235 236 240 244 237 230 224 221 223 215 210 212 204 197 188 187 185 184
309 308 307 308 308 309 310 311 312 312 312 312 310 307 305 302 300 296 293 290 285 271 254 243 239 238 240 238 230 221 214 211 215 209 204 202 195 189 185 181 181 180 172
Wind_Speed_850mb
53 48 46 43 40 37 34 32 31 31 31 32 34 35 35 36 38 39 40 40 42 41 41 45 44 46 51 52 55 57 58 59 74 71 60 59 63 62 61 64 68 69 66
58 55 52 48 44 40 37 34 32 32 32 33 34 36 36 36 36 38 39 41 44 45 45 47 47 47 50 51 54 57 58 62 66 77 69 71 69 63 66 65 67 64 63
68 63 58 52 47 43 39 36 35 34 34 36 38 38 38 38 39 42 47 49 52 53 52 52 51 53 55 54 56 57 59 61 64 70 75 72 70 66 68 65 67 61 59
71 66 61 54 48 42 39 39 38 39 39 40 40 40 42 44 45 47 50 54 56 57 58 56 55 57 59 58 60 60 61 64 65 67 72 70 63 66 56 60 68 59 59
69 66 63 52 46 41 44 51 46 43 42 42 43 44 45 44 41 43 47 51 55 56 55 54 55 57 57 59 63 63 62 62 63 67 67 62 57 56 47 53 64 68 67
65 68 62 53 51 51 48 46 46 45 45 46 45 44 44 43 43 45 49 54 56 59 60 57 56 59 59 60 63 66 62 56 61 62 63 60 62 57 58 58 66 71 68
65 69 64 57 54 55 48 49 49 47 47 46 45 45 47 47 47 50 51 56 59 61 62 62 61 61 61 62 63 66 65 63 60 64 69 69 69 62 62 64 66 72 75
70 68 67 67 59 56 54 54 51 48 48 47 46 48 53 53 49 51 54 60 64 66 65 63 64 62 59 63 64 65 64 61 61 59 62 64 64 64 64 69 73 76 77
58 58 55 56 57 61 56 50 46 44 44 47 50 52 54 56 52 54 57 63 68 69 66 65 65 66 57 58 60 57 60 60 55 53 53 53 53 53 53 57 61 58 59
70 71 58 63 63 55 48 42 42 43 45 48 52 54 56 59 54 55 56 60 65 67 68 67 62 62 61 56 54 50 58 60 56 55 60 55 49 50 54 53 56 62 55
75 85 61 65 56 49 45 43 41 41 44 49 54 57 58 58 59 56 56 61 65 66 67 65 65 62 56 54 52 54 59 59 59 56 58 58 59 49 54 47 47 52 57
75 70 60 57 55 49 46 43 39 42 47 52 59 63 62 63 63 59 56 57 60 59 58 59 68 66 63 54 49 56 58 52 56 58 57 56 54 60 50 44 42 47 53
66 63 44 50 54 51 48 46 45 45 45 53 58 64 66 63 63 63 61 58 58 61 65 66 52 53 58 58 57 57 59 58 57 63 61 63 62 52 46 45 46 48 50
56 52 48 47 53 53 50 51 51 47 50 55 59 63 64 65 65 66 66 65 62 61 58 54 60 59 59 60 63 62 60 56 54 55 57 59 63 50 48 49 50 44 45
52 52 53 49 54 55 53 53 52 51 54 59 63 60 61 68 66 55 53 62 66 66 62 61 65 61 62 65 61 58 51 51 57 50 54 58 55 51 52 48 45 40 39
61 55 55 58 49 51 53 56 55 59 60 63 65 58 61 63 65 58 55 59 63 61 66 74 73 71 69 69 63 60 52 49 48 47 49 54 54 50 46 43 41 38 33
57 57 55 52 49 49 53 57 65 66 66 67 67 61 57 63 58 55 55 57 57 55 64 72 71 70 69 65 63 60 57 44 44 46 43 53 56 50 43 40 38 34 29
58 55 51 51 54 56 57 58 62 66 71 73 66 63 62 60 58 53 52 57 64 63 70 76 76 75 74 69 64 57 49 41 43 43 44 44 48 45 42 39 36 29 26
58 57 56 56 55 56 58 59 61 63 67 70 68 66 66 66 64 56 47 55 66 72 72 75 73 71 67 58 50 44 42 42 41 40 42 42 38 40 40 36 32 27 24
62 57 53 55 55 54 54 56 59 61 63 65 67 69 70 71 68 63 64 60 62 67 65 64 62 58 53 44 40 39 44 41 41 42 43 40 38 39 37 35 30 26 24
69 64 58 57 58 58 58 57 57 59 63 66 69 68 67 58 61 59 58 62 66 71 70 67 63 54 49 37 39 43 39 39 41 42 42 38 36 37 36 33 30 27 24
65 63 61 60 58 56 55 55 57 59 63 67 71 72 69 68 67 65 62 61 63 62 60 58 55 52 48 48 42 39 42 45 45 42 42 38 37 36 34 33 30 28 23
64 63 62 59 56 56 55 56 59 61 65 67 70 72 71 69 65 61 61 57 55 54 49 47 46 40 37 38 34 38 44 44 42 39 39 37 38 37 35 33 31 29 26
61 57 57 57 57 57 58 60 62 65 67 68 69 69 68 66 62 58 55 51 49 46 41 37 34 32 32 34 34 36 39 40 39 38 36 35 36 36 37 33 33 28 27
61 58 56 56 58 60 62 63 65 66 67 67 70 70 68 64 60 56 48 43 41 38 29 26 26 27 29 30 31 33 36 37 38 36 36 36 34 36 37 37 33 32 27
57 55 55 56 59 60 62 65 66 65 66 68 69 68 64 60 55 49 44 39 34 27 23 22 23 24 26 30 30 33 35 37 36 37 37 36 37 41 42 39 35 32 28
Wind_Direction_850mb
264 259 256 253 250 250 254 262 270 277 283 288 293 296 297 296 294 294 294 293 293 293 293 291 291 288 285 284 283 282 278 276 277 285 286 291 295 302 301 300 300 303 306
261 258 255 252 251 255 260 266 273 279 286 291 294 294 293 292 293 294 294 295 296 296 295 294 295 292 291 290 287 282 279 281 280 284 290 294 296 299 298 298 297 301 303
260 257 254 253 255 259 265 271 277 281 286 290 292 293 294 295 295 296 296 296 295 295 294 294 295 294 292 290 288 284 283 282 282 283 287 293 294 297 297 298 298 303 302
258 256 254 253 256 260 266 273 279 282 282 285 287 288 289 291 293 294 294 294 293 293 293 293 293 291 291 290 285 283 283 283 284 283 286 288 289 295 296 295 301 305 305
258 256 253 253 257 263 277 278 273 275 280 285 287 289 292 293 297 298 299 298 297 297 297 297 295 291 288 285 285 285 284 282 282 283 280 282 283 289 288 292 295 304 306
261 258 252 249 255 261 266 270 272 275 281 285 289 290 292 294 299 300 300 299 299 300 300 299 296 294 292 288 286 286 282 274 276 276 275 275 280 285 290 290 296 302 303
271 261 252 252 263 267 268 271 271 275 279 282 285 288 292 294 298 299 298 297 298 299 300 301 299 296 294 290 286 284 283 277 266 268 269 270 276 281 285 289 290 292 291
280 268 262 263 267 268 268 267 271 273 275 279 283 287 289 292 295 296 297 296 296 297 297 297 297 297 296 290 288 285 284 282 281 276 272 276 276 278 278 279 281 283 287
277 273 270 270 268 269 263 266 268 270 277 284 287 289 291 294 297 296 297 296 296 296 296 295 296 296 295 287 286 284 287 288 286 282 284 284 280 278 278 279 279 284 284
277 276 286 278 260 260 262 263 270 277 281 287 291 293 295 296 299 298 298 296 295 295 294 295 298 296 293 288 287 282 285 289 292 290 289 287 285 278 285 273 265 267 278
296 274 279 276 259 258 262 267 273 280 291 294 295 296 296 299 301 299 297 294 292 291 291 294 297 297 291 284 280 274 277 285 286 282 282 287 288 282 290 275 267 268 272
307 301 274 274 259 258 264 267 274 286 292 302 303 300 299 301 301 301 300 294 292 289 285 288 293 292 287 285 280 273 276 280 278 280 279 278 272 288 287 280 277 276 276
307 302 296 273 262 261 263 268 277 284 296 304 303 301 302 303 303 303 301 296 291 290 292 293 289 287 286 283 278 273 268 271 270 269 272 273 276 288 283 281 282 284 282
305 294 287 276 266 262 262 266 274 285 296 303 305 303 303 303 305 306 306 304 302 299 298 296 301 299 289 282 281 278 276 263 263 268 268 270 277 278 279 278 285 288 287
307 299 295 283 275 269 266 271 279 288 295 302 304 301 300 302 304 300 297 299 301 303 306 297 297 291 289 287 285 283 277 278 259 266 266 269 273 274 271 276 284 284 282
316 309 297 289 287 278 274 280 286 290 295 299 302 297 296 294 296 290 287 282 281 283 282 280 279 278 278 279 280 281 279 279 257 263 265 265 267 270 271 275 279 278 269
317 313 307 300 292 286 284 287 289 290 294 296 297 296 297 296 295 289 288 284 283 280 272 273 275 276 277 278 277 275 277 268 258 261 273 261 261 264 268 271 272 269 257
315 312 307 300 296 292 292 291 290 292 296 296 297 300 301 302 298 290 285 283 280 275 272 274 275 276 276 274 271 273 270 263 257 268 267 270 257 254 258 263 261 251 245
319 314 308 303 298 295 292 292 293 294 294 296 300 302 304 304 302 294 285 277 276 277 278 279 279 278 278 276 271 261 256 260 263 267 267 270 261 250 250 254 247 237 235
319 315 309 302 300 298 296 295 293 293 296 300 301 304 306 306 304 304 303 297 291 288 286 283 282 277 271 271 260 250 265 262 262 259 259 263 260 242 244 243 233 232 224
315 312 308 304 304 303 300 298 298 298 300 301 302 305 305 297 291 286 283 283 284 286 287 286 283 273 263 250 259 254 260 260 258 255 253 255 247 239 238 231 222 221 214
311 308 306 305 305 303 301 300 300 301 302 303 305 306 305 299 297 296 293 289 287 286 283 280 274 266 254 241 244 255 258 255 249 248 244 247 237 234 229 216 215 208 208
308 306 305 304 304 304 303 304 304 304 305 307 307 306 305 304 303 300 297 295 291 288 283 276 268 255 236 237 241 250 253 248 242 241 241 240 230 228 215 208 206 198 199
309 306 304 305 306 306 306 307 308 309 309 309 307 307 306 305 303 300 296 294 289 286 280 268 254 242 234 237 241 245 241 234 232 229 231 225 224 219 204 200 191 191 193
308 306 305 306 306 308 308 309 310 311 310 310 310 309 308 306 303 301 297 291 289 284 270 252 241 235 236 240 244 237 230 224 221 223 215 210 212 204 197 188 187 185 184
309 308 307 308 308 309 310 311 312 312 312 312 310 307 305 302 300 296 293 290 285 271 254 243 239 238 240 238 230 221 214 211 215 209 204 202 195 189 185 181 181 180 172